Regional Weather Roundup
Issued by NWS

Home | Current Version | Previous Version | Graphics & Text | Print | Product List | Glossary On
Versions: 1 2 3 4 5 6 7 8 9 10 11 12 13 14 15 16 17 18 19 20 21 22 23 24 25 26 27 28 29 30 31 32 33 34 35 36 37 38 39 40 41 42 43 44 45 46 47 48 49 50
000
ASUS43 KFSD 292310
RWRSD

WEATHER ROUNDUP FOR SOUTH DAKOTA
NATIONAL WEATHER SERVICE SIOUX FALLS SD
600 PM CDT FRI JUL 29 2016

NOTE: "FAIR" INDICATES FEW OR NO CLOUDS BELOW 12,000 FEET WITH NO
SIGNIFICANT WEATHER AND/OR OBSTRUCTIONS TO VISIBILITY.


SDZ001>005-009-010-012>017-300000-
NORTHWEST AND NORTH CENTRAL SOUTH DAKOTA

CITY           SKY/WX    TMP DP  RH WIND       PRES   REMARKS
BUFFALO          N/A     84  52  33 SW6       29.95F
FAITH            N/A     81  51  35 SW7       30.00F
MOBRIDGE       MOSUNNY   83  52  34 S12       29.97F
$$

SDZ012>016-024>037-041>051-057-063-072>074-300000-
SOUTHWEST AND SOUTH CENTRAL SOUTH DAKOTA

CITY           SKY/WX    TMP DP  RH WIND       PRES   REMARKS
RAPID CTY ARPT CLOUDY    73  58  59 SW8       30.02F
PIERRE         MOSUNNY   84  55  36 SE15G22   29.98F
CUSTER         CLOUDY    65  52  62 E8        30.17S
ELLSWORTH AFB  MOSUNNY   77  57  50 SW10      30.02
PHILIP         CLOUDY    82  57  42 CALM      29.99F
PINE RIDGE     CLOUDY    83  57  41 VRB7G17   30.02S
WINNER         FAIR      82  56  40 SE9       30.03F
$$

SDZ004>011-016>023-039-040-300000-
NORTHEAST SOUTH DAKOTA

CITY           SKY/WX    TMP DP  RH WIND       PRES   REMARKS
ABERDEEN       NOT AVBL
WATERTOWN      MOSUNNY   78  55  44 S8        30.04F
BROOKINGS      SUNNY     76  55  48 VRB3      30.05F
SISSETON         N/A     79  59  50 SW5       30.01F
$$

SDZ017-020-022-023-036>040-048>070-300000-
SOUTHEAST SOUTH DAKOTA

CITY           SKY/WX    TMP DP  RH WIND       PRES   REMARKS
SIOUX FALLS    MOSUNNY   75  56  51 NE7       30.03F
HURON          SUNNY     80  52  37 E8        30.00F
CHAMBERLAIN    SUNNY     83  58  41 SE8       30.02S
MITCHELL       SUNNY     81  53  37 SE6       30.02F
YANKTON        SUNNY     79  54  41 E10       30.00F
$$

ABBREVIATIONS USED IN REMARKS
   TC - TEMPERATURE IN CELSIUS
  WCI - WIND CHILL INDEX
   HX - HEAT INDEX
  VSB - VISIBILITY





USA.gov is the U.S. government's official web portal to all federal, state and local government web resources and services.